Starlink 31925

operational
NORAD ID: 59840 Int'l Des: 2024-097 Owner: SPXS Country: US Constellation: starlink
LEOCIRCULAR

关于 Starlink 31925

正在加载描述...

实时位置

正在加载3D地球...

即将过境

高度历史

Altitude vs Time

uPlot chart will show altitude changes over time

两行轨道根数

1 59840C 24097F 25349.83173611 .00197190 00000+0 88728-3 0 3492
2 59840 42.9896 11.3551 0021924 92.9362 202.3936 15.82503405 10
Epoch: Dec 15, 2025 • Age: 90 hours

当前状态

高度 308.7 km
速度 7.74 km/s
星下点 41.31°N, 101.2°E
发射日期 May 23, 2024
运行时间 1.5 years
类型 internet

技术详情

分类 Payload
质量 730.00 kg
干质量 700.00 kg
总质量 730.00 kg
长度 0.30 m
直径 4.10 m
跨度 29.00 m
形状 Box + pan
制造商 SPXS
平台类型 Starlink V2M
阶段状态 In Orbit
所有者/国家 SPXS/US

大型星座

Loading constellations...